• In Hungary
  • List of Countries
  • For 7 days
  • Water Temperature
  • Satellite Maps
  • Weather Map
  • News
  • Weather Widgets
  • user-avatar
    Login

    Hourly Weather Kranevo

    Today, 17 August, Friday

    Time Temperature Precipitation Wind Pressure Humidity
    00:00 +24°C° 0 mm 3 mps 754 mmHg 57%
    01:00 +24°C° 0 mm 3 mps 754 mmHg 57%
    02:00 +22°C° 0 mm 4 mps 754 mmHg 56%
    03:00 +22°C° 0 mm 4 mps 754 mmHg 57%
    04:00 +22°C° 0 mm 4 mps 754 mmHg 57%
    05:00 +22°C° 0 mm 4 mps 754 mmHg 57%
    06:00 +23°C° 0 mm 4 mps 754 mmHg 56%
    07:00 +26°C° 0 mm 5 mps 754 mmHg 54%
    08:00 +27°C° 0 mm 6 mps 754 mmHg 52%
    09:00 +29°C° 0 mm 6 mps 754 mmHg 47%
    10:00 +32°C° 0 mm 6 mps 754 mmHg 41%
    11:00 +34°C° 0 mm 6 mps 754 mmHg 35%
    12:00 +35°C° 0 mm 6 mps 754 mmHg 33%
    13:00 +35°C° 0 mm 6 mps 754 mmHg 32%
    14:00 +35°C° 0 mm 6 mps 754 mmHg 30%
    15:00 +35°C° 0 mm 6 mps 754 mmHg 31%
    16:00 +34°C° 0 mm 6 mps 754 mmHg 33%
    17:00 +34°C° 0 mm 5 mps 754 mmHg 34%
    18:00 +32°C° 0 mm 4 mps 754 mmHg 41%
    19:00 +28°C° 0 mm 4 mps 754 mmHg 48%
    20:00 +26°C° 0 mm 3 mps 754 mmHg 55%
    21:00 +26°C° 0 mm 3 mps 754 mmHg 55%
    22:00 +25°C° 0 mm 3 mps 754 mmHg 54%
    23:00 +25°C° 0 mm 3 mps 754 mmHg 54%

    Tomorrow, 18 August, Saturday

    Time Temperature Precipitation Wind Pressure Humidity
    00:00 +25°C° 0 mm 3 mps 754 mmHg 53%
    01:00 +25°C° 0 mm 3 mps 754 mmHg 51%
    02:00 +23°C° 0 mm 4 mps 754 mmHg 50%
    03:00 +23°C° 0 mm 4 mps 754 mmHg 50%
    04:00 +23°C° 0 mm 4 mps 754 mmHg 51%
    05:00 +22°C° 0 mm 5 mps 754 mmHg 51%
    06:00 +25°C° 0 mm 5 mps 754 mmHg 49%
    07:00 +27°C° 0 mm 5 mps 755 mmHg 47%
    08:00 +28°C° 0 mm 5 mps 755 mmHg 45%
    09:00 +30°C° 0 mm 6 mps 755 mmHg 41%
    10:00 +33°C° 0 mm 6 mps 755 mmHg 37%
    11:00 +34°C° 0 mm 6 mps 755 mmHg 33%
    12:00 +35°C° 0 mm 6 mps 755 mmHg 33%
    13:00 +35°C° 0 mm 6 mps 755 mmHg 33%
    14:00 +35°C° 0 mm 6 mps 755 mmHg 34%
    15:00 +34°C° 0 mm 6 mps 755 mmHg 34%
    16:00 +34°C° 0 mm 6 mps 755 mmHg 35%
    17:00 +34°C° 0 mm 5 mps 755 mmHg 36%
    18:00 +30°C° 0 mm 5 mps 755 mmHg 43%
    19:00 +28°C° 0 mm 4 mps 755 mmHg 49%
    20:00 +26°C° 0 mm 3 mps 756 mmHg 56%
    21:00 +26°C° 0 mm 3 mps 756 mmHg 55%
    22:00 +25°C° 0 mm 3 mps 756 mmHg 55%
    23:00 +25°C° 0 mm 2 mps 756 mmHg 54%

    Day after tomorrow, 19 August, Sunday

    Time Temperature Precipitation Wind Pressure Humidity
    00:00 +25°C° 0 mm 3 mps 756 mmHg 52%
    01:00 +24°C° 0 mm 3 mps 756 mmHg 51%
    02:00 +24°C° 0 mm 3 mps 756 mmHg 49%
    03:00 +24°C° 0 mm 3 mps 756 mmHg 49%
    04:00 +24°C° 0 mm 3 mps 756 mmHg 48%
    05:00 +22°C° 0 mm 4 mps 756 mmHg 48%
    06:00 +25°C° 0 mm 4 mps 756 mmHg 46%
    07:00 +27°C° 0 mm 4 mps 756 mmHg 43%
    08:00 +28°C° 0 mm 4 mps 756 mmHg 41%
    09:00 +30°C° 0 mm 4 mps 756 mmHg 37%
    10:00 +33°C° 0 mm 4 mps 756 mmHg 34%
    11:00 +35°C° 0 mm 5 mps 757 mmHg 30%
    12:00 +35°C° 0 mm 5 mps 756 mmHg 31%
    13:00 +35°C° 0 mm 5 mps 756 mmHg 33%
    14:00 +35°C° 0 mm 5 mps 756 mmHg 34%
    15:00 +34°C° 0 mm 5 mps 756 mmHg 37%
    16:00 +33°C° 0 mm 5 mps 756 mmHg 39%
    17:00 +33°C° 0 mm 5 mps 755 mmHg 42%
    18:00 +30°C° 0 mm 5 mps 756 mmHg 52%
    19:00 +27°C° 0 mm 4 mps 756 mmHg 61%
    20:00 +25°C° 0 mm 4 mps 756 mmHg 71%
    21:00 +25°C° 0 mm 4 mps 756 mmHg 76%
    22:00 +24°C° 0 mm 3 mps 756 mmHg 81%
    23:00 +22°C° 0 mm 3 mps 756 mmHg 86%

    20 August, Monday

    Time Temperature Precipitation Wind Pressure Humidity
    00:00 +22°C° 0 mm 3 mps 756 mmHg 85%
    01:00 +22°C° 0 mm 3 mps 756 mmHg 85%
    02:00 +22°C° 0 mm 3 mps 755 mmHg 84%
    03:00 +21°C° 0 mm 3 mps 755 mmHg 84%
    04:00 +21°C° 0 mm 3 mps 755 mmHg 83%
    05:00 +21°C° 0 mm 4 mps 755 mmHg 82%
    06:00 +22°C° 0 mm 4 mps 756 mmHg 73%
    07:00 +25°C° 0 mm 5 mps 756 mmHg 64%
    08:00 +27°C° 0 mm 6 mps 756 mmHg 55%
    09:00 +28°C° 0 mm 6 mps 756 mmHg 49%
    10:00 +29°C° 0 mm 6 mps 756 mmHg 42%
    11:00 +32°C° 0 mm 7 mps 756 mmHg 35%
    12:00 +32°C° 0 mm 7 mps 756 mmHg 34%
    13:00 +32°C° 0 mm 7 mps 756 mmHg 34%
    14:00 +32°C° 0 mm 7 mps 756 mmHg 33%
    15:00 +30°C° 0 mm 7 mps 756 mmHg 36%
    16:00 +29°C° 0 mm 7 mps 756 mmHg 38%
    17:00 +29°C° 0 mm 6 mps 756 mmHg 40%
    18:00 +27°C° 0 mm 6 mps 756 mmHg 48%
    19:00 +25°C° 0 mm 5 mps 756 mmHg 56%
    20:00 +22°C° 0 mm 4 mps 756 mmHg 64%
    21:00 +21°C° 0 mm 4 mps 756 mmHg 67%
    22:00 +21°C° 0 mm 3 mps 756 mmHg 69%
    23:00 +20°C° 0 mm 3 mps 756 mmHg 72%

    21 August, Tuesday

    Time Temperature Precipitation Wind Pressure Humidity
    00:00 +20°C° 0 mm 3 mps 756 mmHg 73%
    01:00 +19°C° 0 mm 3 mps 756 mmHg 74%
    02:00 +19°C° 0 mm 3 mps 756 mmHg 75%
    03:00 +19°C° 0 mm 4 mps 756 mmHg 76%
    04:00 +18°C° 0 mm 4 mps 756 mmHg 77%
    05:00 +18°C° 0 mm 4 mps 756 mmHg 77%
    06:00 +20°C° 0 mm 5 mps 756 mmHg 69%
    07:00 +22°C° 0 mm 5 mps 757 mmHg 62%
    08:00 +23°C° 0 mm 5 mps 757 mmHg 54%
    09:00 +26°C° 0 mm 5 mps 757 mmHg 49%
    10:00 +28°C° 0 mm 5 mps 757 mmHg 44%
    11:00 +29°C° 0 mm 6 mps 757 mmHg 39%
    12:00 +30°C° 0 mm 6 mps 757 mmHg 38%
    13:00 +30°C° 0 mm 6 mps 756 mmHg 37%
    14:00 +32°C° 0 mm 6 mps 756 mmHg 37%
    15:00 +30°C° 0 mm 6 mps 756 mmHg 39%
    16:00 +30°C° 0 mm 6 mps 756 mmHg 41%
    17:00 +29°C° 0 mm 5 mps 756 mmHg 43%
    18:00 +27°C° 0 mm 5 mps 756 mmHg 52%
    19:00 +25°C° 0 mm 4 mps 756 mmHg 61%
    20:00 +22°C° 0 mm 3 mps 757 mmHg 70%
    21:00 +21°C° 0 mm 3 mps 757 mmHg 74%
    22:00 +21°C° 0 mm 3 mps 757 mmHg 77%
    23:00 +20°C° 0 mm 2 mps 757 mmHg 81%

    22 August, Wednesday

    Time Temperature Precipitation Wind Pressure Humidity
    00:00 +19°C° 0 mm 2 mps 757 mmHg 80%
    01:00 +19°C° 0 mm 2 mps 757 mmHg 80%
    02:00 +19°C° 0 mm 2 mps 757 mmHg 80%
    03:00 +18°C° 0 mm 3 mps 757 mmHg 79%
    04:00 +18°C° 0 mm 3 mps 757 mmHg 78%
    05:00 +18°C° 0 mm 3 mps 757 mmHg 76%
    06:00 +20°C° 0 mm 4 mps 757 mmHg 68%
    07:00 +22°C° 0 mm 4 mps 757 mmHg 59%
    08:00 +25°C° 0 mm 4 mps 757 mmHg 50%
    09:00 +27°C° 0 mm 4 mps 757 mmHg 44%
    10:00 +29°C° 0 mm 5 mps 757 mmHg 39%
    11:00 +30°C° 0 mm 5 mps 757 mmHg 33%
    12:00 +32°C° 0 mm 5 mps 757 mmHg 33%
    13:00 +32°C° 0 mm 5 mps 757 mmHg 32%
    14:00 +33°C° 0 mm 5 mps 756 mmHg 32%
    15:00 +32°C° 0 mm 5 mps 756 mmHg 35%
    16:00 +30°C° 0 mm 5 mps 756 mmHg 37%
    17:00 +30°C° 0 mm 5 mps 756 mmHg 40%
    18:00 +27°C° 0 mm 4 mps 756 mmHg 50%
    19:00 +25°C° 0 mm 4 mps 756 mmHg 59%
    20:00 +22°C° 0 mm 3 mps 756 mmHg 69%
    21:00 +21°C° 0 mm 3 mps 756 mmHg 74%
    22:00 +21°C° 0 mm 2 mps 756 mmHg 79%
    23:00 +20°C° 0 mm 2 mps 756 mmHg 84%
    Show more